[[{"header":{"parameterUnit":"m.s-1","parameterCategory":1,"la1":30.2992,"la2":30.254,"lo1":-89.0895,"lo2":-89.0443,"dy":0.0025,"dx":0.0025,"nx":19,"ny":19,"refTime":"2026-03-13T03:00:00:Z","depth":0,"parameterNumber":2,"parameterNumberName":"U-component_of_WINDS"},"data":[0,0,0,-0.0715,-0.0714,-0.0648,-0.0648,-0.0572,-0.0572,0,0,0,0,0,0,0,0,0,0,0,-0.074,-0.0739,-0.0715,-0.0714,-0.0648,-0.0648,-0.0572,-0.0572,0,0,0,0,0,0,0,0,0,0,0,-0.074,-0.0739,-0.0739,-0.0714,-0.0648,-0.0648,-0.0572,-0.0619,0,0,0,0,0,0,0,0,0,0,-0.0682,-0.0708,-0.0739,-0.0739,-0.0713,-0.0648,-0.0648,-0.0621,-0.0616,-0.0606,0,-0.0597,0,-0.0583,-0.0567,-0.0567,0,0,0,-0.071,-0.0713,-0.0691,-0.0739,-0.0713,-0.0648,-0.0677,-0.0618,-0.0613,-0.0599,-0.0596,-0.0593,-0.0582,-0.0567,-0.0566,-0.0518,-0.0518,0,0,-0.0714,-0.073,-0.0695,-0.0687,-0.0698,-0.0679,-0.0675,-0.0615,-0.0612,-0.0596,-0.0591,-0.0581,-0.0566,-0.0566,-0.0518,-0.0518,0,0,0,-0.0727,-0.0733,-0.0712,-0.0691,-0.0678,-0.0677,-0.0672,-0.0615,-0.0607,-0.059,-0.058,-0.0566,-0.0565,-0.0518,-0.0518,-0.0531,0,0,0,-0.0729,-0.074,-0.0714,-0.0723,-0.068,-0.0646,-0.0674,-0.0611,-0.0604,-0.058,-0.0566,-0.0564,-0.0518,-0.0518,-0.0531,-0.0534,0,0,0,-0.0742,-0.0742,-0.0734,-0.0724,-0.0697,-0.0646,-0.0635,-0.0609,-0.0598,-0.0567,-0.0564,-0.0518,-0.0518,-0.0531,-0.0534,-0.0527,0,0,0,-0.0761,-0.0746,-0.0735,-0.0714,-0.0697,-0.0655,-0.0635,-0.0603,-0.0578,-0.0565,-0.0518,-0.0518,-0.0531,-0.0534,-0.0527,-0.0524,-0.0524,0,0,-0.0751,-0.0745,-0.0732,-0.072,-0.0684,-0.0664,-0.063,-0.0591,-0.0574,-0.0538,-0.0536,-0.0531,-0.0534,-0.0527,-0.0521,-0.0521,0,0,0,-0.0734,-0.0725,-0.0712,-0.0689,-0.066,-0.0635,-0.06,-0.0587,-0.0555,-0.0558,-0.0526,-0.0527,-0.0523,-0.052,-0.0521,-0.0516,-0.0518,-0.0518,-0.0518,-0.0742,-0.0721,-0.0698,-0.067,-0.0648,-0.0613,-0.0594,-0.0569,-0.0553,-0.0546,-0.0535,-0.0534,-0.0532,-0.0532,-0.0527,-0.0532,-0.0532,-0.0532,-0.0532,-0.0726,-0.0709,-0.069,-0.0661,-0.0639,-0.0614,-0.0581,-0.0571,-0.0545,-0.054,-0.0535,-0.053,-0.0533,-0.0528,-0.0533,-0.0533,-0.0533,-0.0533,-0.0533,-0.0728,-0.0717,-0.0701,-0.0667,-0.0644,-0.0616,-0.0592,-0.0573,-0.0555,-0.055,-0.0536,-0.0536,-0.0533,-0.0545,-0.0545,-0.0545,-0.0545,-0.0545,-0.0545,-0.0737,-0.0719,-0.0701,-0.0671,-0.0655,-0.0631,-0.0598,-0.0581,-0.0558,-0.0546,-0.0546,-0.0532,-0.0537,-0.0539,-0.0545,-0.0545,-0.0545,-0.0545,-0.0545,-0.0727,-0.0727,-0.07,-0.0684,-0.0647,-0.0626,-0.0603,-0.0572,-0.0556,-0.0545,-0.0532,-0.054,-0.0532,-0.0532,-0.0533,-0.0537,-0.0537,-0.0537,-0.0537,-0.0729,-0.0724,-0.0693,-0.0669,-0.0643,-0.062,-0.0592,-0.0567,-0.054,-0.0529,-0.0526,-0.0527,-0.0527,-0.0519,-0.0519,-0.052,-0.052,-0.052,-0.052,-0.0722,-0.0714,-0.0692,-0.0667,-0.0638,-0.0614,-0.0586,-0.056,-0.0531,-0.0519,-0.052,-0.0521,-0.0522,-0.0523,-0.051,-0.051,-0.0511,0,0]},{"header":{"parameterUnit":"m.s-1","parameterCategory":1,"la1":30.2992,"la2":30.254,"lo1":-89.0895,"lo2":-89.0443,"dy":0.0025,"dx":0.0025,"nx":19,"ny":19,"refTime":"2026-03-13T03:00:00:Z","depth":0,"parameterNumber":3,"parameterNumberName":"V-component_of_WINDS"},"data":[0,0,0,2.2272,2.2272,2.2233,2.2233,2.2173,2.2173,0,0,0,0,0,0,0,0,0,0,0,2.228,2.2279,2.2273,2.2271,2.2233,2.2233,2.2174,2.2173,0,0,0,0,0,0,0,0,0,0,0,2.228,2.2279,2.2279,2.2271,2.2233,2.2233,2.2174,2.2206,0,0,0,0,0,0,0,0,0,0,2.2244,2.2247,2.2279,2.2278,2.2271,2.2233,2.2233,2.2207,2.2204,2.2187,0,2.2173,0,2.2172,2.2168,2.2168,0,0,0,2.2274,2.225,2.2244,2.2278,2.2271,2.2234,2.2251,2.2206,2.2201,2.2182,2.2172,2.217,2.2171,2.2168,2.2168,2.2067,2.2066,0,0,2.2276,2.227,2.2247,2.2242,2.225,2.2252,2.225,2.2203,2.2191,2.2172,2.2169,2.217,2.2167,2.2167,2.2068,2.2067,0,0,0,2.228,2.2271,2.2266,2.2244,2.2238,2.2251,2.2249,2.2193,2.2192,2.2168,2.2169,2.2167,2.2166,2.2068,2.2067,2.2033,0,0,0,2.2282,2.2274,2.2267,2.2263,2.2239,2.2215,2.2239,2.2195,2.219,2.217,2.2167,2.2166,2.2069,2.2068,2.2035,2.2017,0,0,0,2.2283,2.2274,2.2267,2.2262,2.2246,2.2216,2.2213,2.2195,2.2191,2.2168,2.2165,2.2069,2.2068,2.2037,2.202,2.1988,0,0,0,2.2282,2.2236,2.2267,2.2215,2.2247,2.2196,2.2213,2.2176,2.2152,2.2167,2.2069,2.2067,2.2038,2.2022,2.199,2.1959,2.1946,0,0,2.222,2.2228,2.2198,2.2225,2.2168,2.2203,2.214,2.2123,2.2125,2.2086,2.2083,2.2034,2.202,2.1988,2.1877,2.1866,0,0,0,2.2176,2.2155,2.2141,2.212,2.2107,2.2094,2.2089,2.2082,2.2049,2.2105,2.2015,2.2007,2.1988,2.1973,2.1964,2.1948,2.2061,2.2061,2.2061,2.2077,2.2085,2.2036,2.2039,2.2018,2.2013,2.1995,2.1985,2.1998,2.1977,2.1964,2.1896,2.1879,2.1872,2.1855,2.195,2.1949,2.1949,2.1949,2.1986,2.1956,2.1975,2.1935,2.1942,2.1907,2.19,2.191,2.1877,2.1906,2.189,2.192,2.1861,2.1846,2.1947,2.1947,2.1947,2.1948,2.1948,2.1921,2.1908,2.1903,2.1873,2.1848,2.1852,2.182,2.1828,2.1835,2.1819,2.1806,2.1807,2.1807,2.1813,2.1812,2.1812,2.1812,2.1812,2.1812,2.1855,2.185,2.1824,2.1808,2.1795,2.1779,2.1774,2.176,2.1747,2.1755,2.1755,2.1768,2.1854,2.1875,2.1808,2.1809,2.1809,2.1809,2.181,2.1757,2.1781,2.1739,2.1727,2.1708,2.1682,2.1694,2.1666,2.1656,2.164,2.1657,2.172,2.1728,2.1735,2.1752,2.1657,2.1657,2.1657,2.1657,2.1701,2.1707,2.1666,2.1646,2.1626,2.1632,2.1583,2.1578,2.1576,2.157,2.1585,2.1609,2.1616,2.162,2.1629,2.1645,2.1525,2.1525,2.1525,2.164,2.1645,2.1602,2.1604,2.159,2.1577,2.153,2.1504,2.1506,2.152,2.1565,2.1571,2.1609,2.1622,2.1634,2.1649,2.1678,0,0]}]]